Hourly Data Report for October 17, 2016

All times are specified in Local Standard Time (LST). Add 1 hour to adjust for Daylight Saving Time where and when it is observed.

KITCHENER/WATERLOO
ONTARIO

43°27'39.000" N
80°22'43.000" W
321.60 m
6144239
71368
YKF

Download Data

Hourly Data (October 2016)
Hourly Data Report for October 17, 2016
Temp Definition
°C
Dew Point Temp Definition
°C
Rel Hum Definition
%
Wind Dir Definition
10's deg

Wind Spd Definition
km/h
Visibility Definition
km
Stn Press Definition
kPa
Hmdx Definition


Wind Chill Definition


Weather Definition


TIME
00:00 Legend Double Dagger 16.2 15.6 96 11 4 9.7 97.60     Fog
01:00 Legend Double Dagger 16.2 15.7 97   0 3.6 97.62     Fog
02:00 Legend Double Dagger 16.2 15.7 97   0 1.6 97.59     Fog
03:00 Legend Double Dagger 16.4 15.9 97 20 5 1.0 97.55     Fog
04:00 Legend Double Dagger 16.3 15.8 97 4 5 0.6 97.46     Fog
05:00 Legend Double Dagger 16.3 15.8 97 17 8 0.4 97.46     Fog
06:00 Legend Double Dagger 16.3 15.8 97 18 9 1.0 97.45     Fog
07:00 Legend Double Dagger 16.3 15.8 97 16 5 1.2 97.45     Fog
08:00 Legend Double Dagger 16.6 16.1 97 13 9 1.6 97.46     Fog
09:00 Legend Double Dagger 16.9 16.4 97 14 9 1.2 97.42     Fog
10:00 Legend Double Dagger 17.5 17.0 97 15 15 2.0 97.31     Fog
11:00 Legend Double Dagger 18.0 17.5 97 17 15 4.0 97.28     Fog
12:00 Legend Double Dagger 20.2 18.3 88 16 18 12.9 97.16 26   LegendNANA
13:00 Legend Double Dagger 22.6 17.9 74 19 28 16.1 96.99 29   LegendNANA
14:00 Legend Double Dagger 22.5 17.4 73 20 26 16.1 96.96 28   LegendNANA
15:00 Legend Double Dagger 22.7 17.3 71 20 22 16.1 96.94 28   LegendNANA
16:00 Legend Double Dagger 22.5 17.2 72 20 17 16.1 96.96 28   LegendNANA
17:00 Legend Double Dagger 22.4 16.8 70 21 22 16.1 96.98 28   LegendNANA
18:00 Legend Double Dagger 21.7 16.7 73 19 17 16.1 96.97 27   LegendNANA
19:00 Legend Double Dagger 21.2 16.7 75 18 17 16.1 96.95 26   LegendNANA
20:00 Legend Double Dagger 21.1 16.7 75 18 22 16.1 96.88 26   LegendNANA
21:00 Legend Double Dagger 20.8 16.7 77 18 24 16.1 96.81 26   LegendNANA
22:00 Legend Double Dagger 20.6 16.3 76 19 22 16.1 96.81 25   LegendNANA
23:00 Legend Double Dagger 20.4 15.7 74 19 21 16.1 96.80 25   LegendNANA

Notes on Data Quality.

Legend

  • E = Estimated
  • M = Missing
  • NA = Not Available
  • ‡ = Partner data that is not subject to review by the National Climate Archives
Date modified: